EN

Hourly Weather Abaújszántó

Today, 13 June, Sunday

Time Temperature Precipitation Wind Pressure Humidity
00:00 +18°C° 0.3 mm 3 mps 739 mmHg 85%
01:00 +18°C° 0 mm 3 mps 739 mmHg 89%
02:00 +17°C° 1.2 mm 3 mps 739 mmHg 89%
03:00 +14°C° 1.2 mm 3 mps 740 mmHg 89%
04:00 +13°C° 1.2 mm 3 mps 740 mmHg 89%
05:00 +14°C° 0 mm 4 mps 741 mmHg 83%
06:00 +15°C° 0 mm 5 mps 741 mmHg 76%
07:00 +15°C° 0 mm 5 mps 742 mmHg 69%
08:00 +16°C° 0 mm 5 mps 742 mmHg 63%
09:00 +17°C° 0 mm 5 mps 743 mmHg 56%
10:00 +19°C° 0 mm 5 mps 743 mmHg 50%
11:00 +20°C° 0 mm 5 mps 743 mmHg 47%
12:00 +21°C° 0 mm 4 mps 743 mmHg 44%
13:00 +21°C° 0 mm 4 mps 743 mmHg 41%
14:00 +20°C° 0 mm 5 mps 743 mmHg 45%
15:00 +20°C° 0 mm 5 mps 743 mmHg 48%
16:00 +19°C° 0 mm 6 mps 744 mmHg 52%
17:00 +17°C° 0 mm 6 mps 744 mmHg 54%
18:00 +16°C° 0 mm 6 mps 744 mmHg 57%
19:00 +15°C° 0 mm 5 mps 745 mmHg 59%
20:00 +14°C° 0 mm 5 mps 745 mmHg 61%
21:00 +13°C° 0 mm 4 mps 745 mmHg 63%
22:00 +12°C° 0 mm 4 mps 746 mmHg 64%
23:00 +11°C° 0 mm 3 mps 746 mmHg 66%

Tomorrow, 14 June, Monday

Time Temperature Precipitation Wind Pressure Humidity
00:00 +11°C° 0 mm 3 mps 746 mmHg 68%
01:00 +10°C° 0 mm 3 mps 746 mmHg 70%
02:00 +10°C° 0 mm 3 mps 746 mmHg 72%
03:00 +9°C° 0 mm 3 mps 746 mmHg 75%
04:00 +9°C° 0 mm 3 mps 746 mmHg 77%
05:00 +11°C° 0 mm 4 mps 746 mmHg 72%
06:00 +13°C° 0 mm 4 mps 746 mmHg 67%
07:00 +15°C° 0 mm 5 mps 746 mmHg 62%
08:00 +16°C° 0 mm 5 mps 746 mmHg 58%
09:00 +17°C° 0 mm 6 mps 746 mmHg 54%
10:00 +17°C° 0 mm 6 mps 746 mmHg 50%
11:00 +19°C° 0 mm 6 mps 746 mmHg 49%
12:00 +20°C° 0 mm 5 mps 746 mmHg 47%
13:00 +20°C° 0 mm 5 mps 746 mmHg 46%
14:00 +20°C° 0 mm 4 mps 745 mmHg 48%
15:00 +20°C° 0 mm 4 mps 745 mmHg 51%
16:00 +19°C° 0 mm 3 mps 745 mmHg 53%
17:00 +18°C° 0 mm 3 mps 745 mmHg 58%
18:00 +16°C° 0 mm 2 mps 745 mmHg 64%
19:00 +15°C° 0 mm 1 mps 745 mmHg 69%
20:00 +15°C° 0 mm 1 mps 746 mmHg 67%
21:00 +15°C° 0 mm 1 mps 746 mmHg 66%
22:00 +14°C° 0 mm 1 mps 746 mmHg 65%
23:00 +14°C° 0 mm 1 mps 746 mmHg 65%

Day after tomorrow, 15 June, Tuesday

Time Temperature Precipitation Wind Pressure Humidity
00:00 +14°C° 0 mm 2 mps 746 mmHg 65%
01:00 +14°C° 0 mm 2 mps 746 mmHg 65%
02:00 +14°C° 0 mm 2 mps 746 mmHg 68%
03:00 +13°C° 0 mm 2 mps 745 mmHg 72%
04:00 +12°C° 0 mm 2 mps 745 mmHg 76%
05:00 +14°C° 0 mm 2 mps 746 mmHg 71%
06:00 +16°C° 0 mm 2 mps 746 mmHg 67%
07:00 +17°C° 0 mm 2 mps 746 mmHg 62%
08:00 +19°C° 0 mm 2 mps 746 mmHg 59%
09:00 +20°C° 0 mm 3 mps 746 mmHg 55%
10:00 +22°C° 0 mm 3 mps 746 mmHg 52%
11:00 +23°C° 0 mm 2 mps 745 mmHg 51%
12:00 +24°C° 0 mm 2 mps 745 mmHg 50%
13:00 +25°C° 0 mm 2 mps 745 mmHg 49%
14:00 +25°C° 0 mm 2 mps 745 mmHg 49%
15:00 +25°C° 0 mm 2 mps 744 mmHg 49%
16:00 +25°C° 0 mm 2 mps 744 mmHg 50%
17:00 +24°C° 0 mm 2 mps 744 mmHg 57%
18:00 +21°C° 0 mm 2 mps 744 mmHg 63%
19:00 +20°C° 0 mm 2 mps 744 mmHg 70%
20:00 +19°C° 0 mm 2 mps 744 mmHg 72%
21:00 +17°C° 0 mm 2 mps 744 mmHg 74%
22:00 +16°C° 0 mm 2 mps 744 mmHg 76%
23:00 +16°C° 0 mm 2 mps 744 mmHg 77%

16 June, Wednesday

Time Temperature Precipitation Wind Pressure Humidity
00:00 +15°C° 0 mm 2 mps 744 mmHg 78%
01:00 +15°C° 0 mm 2 mps 744 mmHg 79%
02:00 +15°C° 0 mm 2 mps 744 mmHg 78%
03:00 +14°C° 0 mm 2 mps 744 mmHg 78%
04:00 +14°C° 0 mm 2 mps 744 mmHg 77%
05:00 +16°C° 0 mm 3 mps 745 mmHg 73%
06:00 +18°C° 0 mm 3 mps 745 mmHg 69%
07:00 +19°C° 0 mm 3 mps 745 mmHg 65%
08:00 +21°C° 0 mm 3 mps 745 mmHg 61%
09:00 +23°C° 0 mm 4 mps 745 mmHg 57%
10:00 +25°C° 0 mm 4 mps 745 mmHg 53%
11:00 +26°C° 0 mm 4 mps 745 mmHg 52%
12:00 +26°C° 0 mm 4 mps 745 mmHg 50%
13:00 +27°C° 0 mm 3 mps 744 mmHg 49%
14:00 +27°C° 0 mm 3 mps 744 mmHg 50%
15:00 +27°C° 0 mm 3 mps 744 mmHg 52%
16:00 +27°C° 0 mm 3 mps 744 mmHg 53%
17:00 +25°C° 0 mm 3 mps 744 mmHg 61%
18:00 +24°C° 0 mm 3 mps 744 mmHg 69%
19:00 +21°C° 0 mm 3 mps 744 mmHg 77%
20:00 +20°C° 0 mm 3 mps 744 mmHg 81%
21:00 +18°C° 0 mm 3 mps 745 mmHg 85%
22:00 +17°C° 0 mm 3 mps 745 mmHg 88%
23:00 +17°C° 0 mm 3 mps 745 mmHg 90%

17 June, Thursday

Time Temperature Precipitation Wind Pressure Humidity
00:00 +16°C° 0 mm 3 mps 745 mmHg 91%
01:00 +16°C° 0 mm 3 mps 745 mmHg 92%
02:00 +14°C° 0 mm 3 mps 745 mmHg 92%
03:00 +15°C° 0 mm 2 mps 745 mmHg 92%
04:00 +14°C° 0 mm 2 mps 745 mmHg 91%
05:00 +16°C° 0 mm 3 mps 745 mmHg 83%
06:00 +18°C° 0 mm 3 mps 745 mmHg 75%
07:00 +20°C° 0 mm 3 mps 745 mmHg 67%
08:00 +21°C° 0 mm 3 mps 745 mmHg 61%
09:00 +24°C° 0 mm 3 mps 745 mmHg 55%
10:00 +25°C° 0 mm 2 mps 745 mmHg 50%
11:00 +26°C° 0 mm 2 mps 745 mmHg 47%
12:00 +26°C° 0 mm 2 mps 745 mmHg 45%
13:00 +27°C° 0 mm 2 mps 745 mmHg 42%
14:00 +27°C° 0 mm 2 mps 744 mmHg 43%
15:00 +27°C° 0 mm 2 mps 744 mmHg 44%
16:00 +27°C° 0 mm 1 mps 744 mmHg 45%
17:00 +26°C° 0 mm 1 mps 744 mmHg 51%
18:00 +24°C° 0 mm 1 mps 744 mmHg 58%
19:00 +21°C° 0 mm 0 mps 744 mmHg 65%
20:00 +21°C° 0 mm 1 mps 744 mmHg 68%
21:00 +20°C° 0 mm 1 mps 744 mmHg 71%
22:00 +18°C° 0 mm 2 mps 744 mmHg 74%
23:00 +18°C° 0 mm 2 mps 744 mmHg 77%

18 June, Friday

Time Temperature Precipitation Wind Pressure Humidity
00:00 +17°C° 0 mm 2 mps 744 mmHg 80%
01:00 +16°C° 0 mm 2 mps 744 mmHg 83%
02:00 +16°C° 0 mm 2 mps 744 mmHg 83%
03:00 +16°C° 0 mm 2 mps 744 mmHg 84%
04:00 +16°C° 0 mm 2 mps 744 mmHg 84%
05:00 +18°C° 0 mm 1 mps 744 mmHg 79%
06:00 +20°C° 0 mm 1 mps 744 mmHg 75%
07:00 +22°C° 0 mm 1 mps 744 mmHg 70%
08:00 +23°C° 0 mm 1 mps 744 mmHg 66%
09:00 +25°C° 0 mm 2 mps 744 mmHg 62%
10:00 +26°C° 0 mm 2 mps 744 mmHg 57%
11:00 +27°C° 0 mm 2 mps 744 mmHg 55%
12:00 +28°C° 0 mm 2 mps 744 mmHg 52%
13:00 +28°C° 0 mm 2 mps 744 mmHg 50%
14:00 +28°C° 0 mm 2 mps 744 mmHg 51%
15:00 +28°C° 0 mm 2 mps 743 mmHg 53%
16:00 +28°C° 0 mm 1 mps 743 mmHg 54%
17:00 +26°C° 0 mm 1 mps 743 mmHg 59%
18:00 +25°C° 0 mm 1 mps 743 mmHg 63%
19:00 +24°C° 0 mm 1 mps 743 mmHg 68%
20:00 +23°C° 0 mm 1 mps 743 mmHg 70%
21:00 +22°C° 0 mm 1 mps 743 mmHg 72%
22:00 +21°C° 0 mm 1 mps 743 mmHg 74%
23:00 +21°C° 0 mm 1 mps 743 mmHg 75%
Show more